Miscellaneous Local Product
Issued by NWS Hastings, NE

Home | Current Version | Previous Version | Text Only | Print | Product List | Glossary On
Versions: 1 2 3 4 5 6 7 8 9 10 11 12 13 14 15 16 17 18 19 20 21 22 23 24 25 26 27 28 29 30 31 32 33 34 35 36 37 38 39 40 41 42 43 44 45 46 47 48 49 50
000
AXUS43 KGID 201802
MISGRI

GID CWA HOURLY WEATHER ROUNDUP
NATIONAL WEATHER SERVICE HASTINGS NE
1200 PM CST FRI JAN 20 2017

NOTE: "FAIR" INDICATES FEW OR NO CLOUDS BELOW 12,000 FEET WITH NO
SIGNIFICANT WEATHER AND/OR OBSTRUCTIONS TO VISIBILITY.

...SOUTH CENTRAL NEBRASKA...

CITY           SKY/WX    TMP DP  RH WIND       PRES   REMARKS
GRAND ISLAND   CLOUDY    39  39 100 S5        29.47F
HASTINGS       CLOUDY    40  39  97 S6        29.46F FOG
KEARNEY        CLOUDY    39  37  93 SE5       29.45F VSB 1/4
ORD            CLOUDY    40  37  89 SW6       29.44F
YORK           CLOUDY    41  41 100 SE6       29.48F FOG
AURORA         CLOUDY    40  40 100 SE5       29.47F FOG
LEXINGTON      CLOUDY    40  38  95 S6        29.44F FOG
HOLDREGE       CLOUDY    40  39  97 S5        29.44F FOG
HEBRON         CLOUDY    42  42 100 SE6       29.47F FOG

...NEBRASKA PANHANDLE...

CITY           SKY/WX    TMP DP  RH WIND       PRES   REMARKS
CHADRON        CLOUDY    35  28  75 W7        29.40F WCI  29
ALLIANCE       MOSUNNY   39  29  67 W14       29.38F WCI  31
SCOTTSBLUFF    CLOUDY    38  27  64 W10       29.41F WCI  31
SIDNEY         PTSUNNY   40  31  70 NW13      29.42F WCI  32

...WESTERN AND NORTH CENTRAL NEBRASKA...

CITY           SKY/WX    TMP DP  RH WIND       PRES   REMARKS
VALENTINE      SUNNY     39  28  64 SW10      29.37F WCI  32
AINSWORTH      SUNNY     37  32  83 SW10      29.38F WCI  30
ONEILL         SUNNY     46  38  74 SW14G21   29.41F
BROKEN BOW     CLOUDY    39  37  92 SW5       29.43F
IMPERIAL       CLOUDY    30  28  92 W3        29.42F
NORTH PLATTE   CLOUDY    37  34  89 W7        29.44F WCI  32
MCCOOK         CLOUDY    36  35  96 W9        29.44F WCI  29

...EASTERN NEBRASKA...

CITY           SKY/WX    TMP DP  RH WIND       PRES   REMARKS
NORFOLK        CLOUDY    40  39  97 S10       29.47F WCI  33
SO SIOUX CITY  CLOUDY    42  41  96 SE8       29.50F FOG
TEKAMAH        CLOUDY    42  40  92 SE7       29.52F FOG
COLUMBUS       CLOUDY    41  39  93 S8        29.49F
ALBION         CLOUDY   N/A N/A N/A S10       29.46F FOG
OMAHA EPPLEY   CLOUDY    43  39  86 SE6       29.52F
OFFUTT AFB     PTSUNNY   42  42 100 SE5       29.53F
MILLARD        CLOUDY    44  43  96 SE6       29.53F
LINCOLN        CLOUDY    42  41  96 E7        29.52F
NEBRASKA CITY  CLOUDY    42  42 100 SE3       29.52F FOG
BEATRICE       CLOUDY    43  43 100 E3        29.50F FOG
FALLS CITY     FOG       44  43  96 E5        29.52F VSB 1/4

...NORTHERN KANSAS...

CITY           SKY/WX    TMP DP  RH WIND       PRES   REMARKS
GOODLAND       CLOUDY    32  30  92 NW8       29.42F WCI  25
HILL CITY      CLOUDY    42  42 100 S6        29.46F FOG
NORTON         FOG       39  37  93 S5        29.44F VSB 1/2
PHILLIPSBURG   CLOUDY    41  41 100 E5        29.46F FOG
SMITH CENTER   FOG       39  39 100 SE7       29.47F VSB 1/2 WCI  34
HAYS           CLOUDY    43  43 100 SW5       29.46F
RUSSELL        CLOUDY    45  43  93 S5        29.45F
CONCORDIA      FOG       43  43 100 SE6       29.47F VSB 1/4
SALINA         FOG       45  45 100 E7        29.50S VSB 1/8
TOPEKA         CLOUDY    48  46  93 E6        29.50F FOG



USA.gov is the U.S. government's official web portal to all federal, state and local government web resources and services.